Year,Month,Day,Hour,Minute,Value (Times are PST for temperature in C)
2013,08,19,00,00,16.30
2013,08,19,00,01,16.30
2013,08,19,00,02,16.30
2013,08,19,00,03,16.30
2013,08,19,00,04,16.30
2013,08,19,00,05,16.30
2013,08,19,00,06,16.30
2013,08,19,00,07,16.30
2013,08,19,00,08,16.30
2013,08,19,00,09,16.30
2013,08,19,00,10,16.30
2013,08,19,00,11,16.30
2013,08,19,00,12,16.40
2013,08,19,00,13,16.40
2013,08,19,00,14,16.40
2013,08,19,00,15,16.40
2013,08,19,00,16,16.40
2013,08,19,00,17,16.40
2013,08,19,00,18,16.40
2013,08,19,00,19,16.40
2013,08,19,00,20,16.40
2013,08,19,00,21,16.40
2013,08,19,00,22,16.40
2013,08,19,00,23,16.40
2013,08,19,00,24,16.40
2013,08,19,00,25,16.40
2013,08,19,00,26,16.40
2013,08,19,00,27,16.40
2013,08,19,00,28,16.40
2013,08,19,00,29,16.40
2013,08,19,00,30,16.40
2013,08,19,00,31,16.40
2013,08,19,00,32,16.40
2013,08,19,00,33,16.40
2013,08,19,00,34,16.40
2013,08,19,00,35,16.40
2013,08,19,00,36,16.40
2013,08,19,00,37,16.40
2013,08,19,00,38,16.40
2013,08,19,00,39,16.40
2013,08,19,00,40,16.40
2013,08,19,00,41,16.40
2013,08,19,00,42,16.40
2013,08,19,00,43,16.40
2013,08,19,00,44,16.40
2013,08,19,00,45,16.40
2013,08,19,00,46,16.40
2013,08,19,00,47,16.40
2013,08,19,00,48,16.40
2013,08,19,00,49,16.40
2013,08,19,00,50,16.40
2013,08,19,00,51,16.40
2013,08,19,00,52,16.40
2013,08,19,00,53,16.40
2013,08,19,00,54,16.30
2013,08,19,00,55,16.30
2013,08,19,00,56,16.30
2013,08,19,00,57,16.30
2013,08,19,00,58,16.30
2013,08,19,00,59,16.30
2013,08,19,01,00,16.30
2013,08,19,01,01,16.30
2013,08,19,01,02,16.30
2013,08,19,01,03,16.30
2013,08,19,01,04,16.30
2013,08,19,01,05,16.20
2013,08,19,01,06,16.20
2013,08,19,01,07,16.20
2013,08,19,01,08,16.20
2013,08,19,01,09,16.20
2013,08,19,01,10,16.20
2013,08,19,01,11,16.20
2013,08,19,01,12,16.10
2013,08,19,01,13,16.10
2013,08,19,01,14,16.10
2013,08,19,01,15,16.10
2013,08,19,01,16,16.10
2013,08,19,01,17,16.10
2013,08,19,01,18,16.10
2013,08,19,01,19,16.10
2013,08,19,01,20,16.10
2013,08,19,01,21,16.10
2013,08,19,01,22,16.10
2013,08,19,01,23,15.90
2013,08,19,01,24,15.90
2013,08,19,01,25,15.90
2013,08,19,01,26,15.90
2013,08,19,01,27,15.90
2013,08,19,01,28,15.80
2013,08,19,01,29,15.80
2013,08,19,01,30,15.80
2013,08,19,01,31,15.80
2013,08,19,01,32,15.80
2013,08,19,01,33,15.80
2013,08,19,01,34,15.80
2013,08,19,01,35,15.80
2013,08,19,01,36,15.80
2013,08,19,01,37,15.80
2013,08,19,01,38,15.80
2013,08,19,01,39,15.80
2013,08,19,01,40,15.80
2013,08,19,01,41,15.80
2013,08,19,01,42,15.80
2013,08,19,01,43,15.80
2013,08,19,01,44,15.80
2013,08,19,01,45,15.80
2013,08,19,01,46,15.80
2013,08,19,01,47,15.80
2013,08,19,01,48,15.80
2013,08,19,01,49,15.80
2013,08,19,01,50,15.80
2013,08,19,01,51,15.80
2013,08,19,01,52,15.80
2013,08,19,01,53,15.80
2013,08,19,01,54,15.80
2013,08,19,01,55,15.80
2013,08,19,01,56,15.80
2013,08,19,01,57,15.80
2013,08,19,01,58,15.80
2013,08,19,01,59,15.90
2013,08,19,02,00,15.90
2013,08,19,02,01,15.90
2013,08,19,02,02,15.90
2013,08,19,02,03,15.90
2013,08,19,02,04,15.90
2013,08,19,02,05,16.10
2013,08,19,02,06,16.10
2013,08,19,02,07,16.10
2013,08,19,02,08,16.10
2013,08,19,02,09,16.10
2013,08,19,02,10,16.10
2013,08,19,02,11,16.10
2013,08,19,02,12,16.10
2013,08,19,02,13,16.10
2013,08,19,02,14,16.10
2013,08,19,02,15,16.10
2013,08,19,02,16,16.10
2013,08,19,02,17,16.10
2013,08,19,02,18,16.10
2013,08,19,02,19,16.10
2013,08,19,02,20,16.10
2013,08,19,02,21,16.10
2013,08,19,02,22,16.10
2013,08,19,02,23,16.10
2013,08,19,02,24,16.10
2013,08,19,02,25,16.10
2013,08,19,02,26,16.10
2013,08,19,02,27,16.10
2013,08,19,02,28,16.10
2013,08,19,02,29,16.20
2013,08,19,02,30,16.20
2013,08,19,02,31,16.20
2013,08,19,02,32,16.20
2013,08,19,02,33,16.20
2013,08,19,02,34,16.30
2013,08,19,02,35,16.30
2013,08,19,02,36,16.30
2013,08,19,02,37,16.30
2013,08,19,02,38,16.30
2013,08,19,02,39,16.30
2013,08,19,02,40,16.30
2013,08,19,02,41,16.30
2013,08,19,02,42,16.30
2013,08,19,02,43,16.30
2013,08,19,02,44,16.30
2013,08,19,02,45,16.30
2013,08,19,02,46,16.20
2013,08,19,02,47,16.20
2013,08,19,02,48,16.20
2013,08,19,02,49,16.20
2013,08,19,02,50,16.20
2013,08,19,02,51,16.20
2013,08,19,02,52,16.20
2013,08,19,02,53,16.20
2013,08,19,02,54,16.20
2013,08,19,02,55,16.20
2013,08,19,02,56,16.20
2013,08,19,02,57,16.20
2013,08,19,02,58,16.20
2013,08,19,07,12,15.60
2013,08,19,07,13,15.60
2013,08,19,07,14,15.60
2013,08,19,07,15,15.60
2013,08,19,07,16,15.60
2013,08,19,07,17,15.60
2013,08,19,07,18,15.60
2013,08,19,07,19,15.60
2013,08,19,07,20,15.60
2013,08,19,07,21,15.60
2013,08,19,07,22,15.60
2013,08,19,07,23,15.60
2013,08,19,07,24,15.70
2013,08,19,07,25,15.70
2013,08,19,07,26,15.70
2013,08,19,07,27,15.70
2013,08,19,07,28,15.70
2013,08,19,07,29,15.70
2013,08,19,07,30,15.70
2013,08,19,07,31,15.70
2013,08,19,07,32,15.70
2013,08,19,07,33,15.70
2013,08,19,07,34,15.70
2013,08,19,07,35,15.70
2013,08,19,07,36,15.70
2013,08,19,07,37,15.70
2013,08,19,07,38,15.70
2013,08,19,07,39,15.70
2013,08,19,07,40,15.70
2013,08,19,07,41,15.70
2013,08,19,07,42,15.70
2013,08,19,07,43,15.80
2013,08,19,07,44,15.80
2013,08,19,07,45,15.80
2013,08,19,07,46,15.80
2013,08,19,07,47,15.70
2013,08,19,07,48,15.70
2013,08,19,07,49,15.70
2013,08,19,07,50,15.70
2013,08,19,07,51,15.70
2013,08,19,07,52,15.70
2013,08,19,07,53,15.70
2013,08,19,07,54,15.70
2013,08,19,07,55,15.80
2013,08,19,07,56,15.80
2013,08,19,07,57,15.80
2013,08,19,07,58,15.80
2013,08,19,07,59,15.80
2013,08,19,08,00,15.80
2013,08,19,08,01,15.80
2013,08,19,08,02,15.80
2013,08,19,08,03,15.80
2013,08,19,08,04,15.90
2013,08,19,08,05,15.90
2013,08,19,08,06,15.90
2013,08,19,08,07,15.90
2013,08,19,08,08,16.10
2013,08,19,08,09,16.10
2013,08,19,08,10,16.10
2013,08,19,08,11,16.10
2013,08,19,08,12,16.10
2013,08,19,08,13,16.10
2013,08,19,08,14,16.10
2013,08,19,08,15,16.20
2013,08,19,08,16,16.20
2013,08,19,08,17,16.20
2013,08,19,08,18,16.30
2013,08,19,08,19,16.30
2013,08,19,08,20,16.30
2013,08,19,08,21,16.40
2013,08,19,08,22,16.40
2013,08,19,08,23,16.40
2013,08,19,08,24,16.60
2013,08,19,08,25,16.60
2013,08,19,08,26,16.60
2013,08,19,08,27,16.60
2013,08,19,08,28,16.70
2013,08,19,08,29,16.70
2013,08,19,08,30,16.70
2013,08,19,08,31,16.70
2013,08,19,08,32,16.70
2013,08,19,08,33,16.70
2013,08,19,08,34,16.70
2013,08,19,08,35,16.80
2013,08,19,08,36,16.80
2013,08,19,08,37,16.80
2013,08,19,08,38,16.80
2013,08,19,08,39,16.80
2013,08,19,08,40,16.80
2013,08,19,08,41,16.80
2013,08,19,08,42,16.80
2013,08,19,08,43,16.80
2013,08,19,08,44,16.80
2013,08,19,08,45,16.80
2013,08,19,08,46,16.90
2013,08,19,08,47,16.90
2013,08,19,08,48,16.90
2013,08,19,08,49,16.80
2013,08,19,08,50,16.80
2013,08,19,08,51,16.80
2013,08,19,08,52,16.80
2013,08,19,08,53,16.80
2013,08,19,08,54,16.80
2013,08,19,08,55,16.80
2013,08,19,08,56,16.80
2013,08,19,08,57,16.80
2013,08,19,08,58,16.80
2013,08,19,08,59,16.80
2013,08,19,09,00,16.80
2013,08,19,09,01,16.90
2013,08,19,09,02,16.90
2013,08,19,09,03,16.90
2013,08,19,09,04,16.90
2013,08,19,09,05,16.90
2013,08,19,09,06,16.90
2013,08,19,09,07,16.90
2013,08,19,09,08,16.90
2013,08,19,09,09,16.90
2013,08,19,09,10,16.90
2013,08,19,09,11,16.90
2013,08,19,09,12,16.90
2013,08,19,09,13,16.90
2013,08,19,09,14,16.80
2013,08,19,09,15,16.80
2013,08,19,09,16,16.70
2013,08,19,09,17,16.70
2013,08,19,09,18,16.70
2013,08,19,09,19,16.70
2013,08,19,09,20,16.60
2013,08,19,09,21,16.60
2013,08,19,09,22,16.60
2013,08,19,09,23,16.40
2013,08,19,09,24,16.40
2013,08,19,09,25,16.40
2013,08,19,09,26,16.40
2013,08,19,09,27,16.40
2013,08,19,09,28,16.40
2013,08,19,09,29,16.40
2013,08,19,09,30,16.40
2013,08,19,09,31,16.40
2013,08,19,09,32,16.40
2013,08,19,09,33,16.40
2013,08,19,09,34,16.40
2013,08,19,09,35,16.30
2013,08,19,09,36,16.30
2013,08,19,09,37,16.30
2013,08,19,09,38,16.20
2013,08,19,09,39,16.20
2013,08,19,09,40,16.20
2013,08,19,09,41,16.20
2013,08,19,09,42,16.10
2013,08,19,09,43,16.10
2013,08,19,09,44,16.10
2013,08,19,09,45,16.10
2013,08,19,09,46,16.10
2013,08,19,09,47,16.10
2013,08,19,09,48,16.10
2013,08,19,09,49,16.10
2013,08,19,09,50,16.10
2013,08,19,09,51,16.20
2013,08,19,09,52,16.20
2013,08,19,09,53,16.20
2013,08,19,09,54,16.30
2013,08,19,09,55,16.30
2013,08,19,09,56,16.40
2013,08,19,09,57,16.40
2013,08,19,09,58,16.40
2013,08,19,09,59,16.60
2013,08,19,10,00,16.60
2013,08,19,10,01,16.70
2013,08,19,10,02,16.70
2013,08,19,10,03,16.70
2013,08,19,10,04,16.80
2013,08,19,10,05,16.80
2013,08,19,10,06,16.90
2013,08,19,10,07,16.90
2013,08,19,10,08,16.90
2013,08,19,10,09,17.00
2013,08,19,10,10,17.00
2013,08,19,10,11,17.00
2013,08,19,10,12,17.10
2013,08,19,10,13,17.10
2013,08,19,10,14,17.10
2013,08,19,10,15,17.20
2013,08,19,10,16,17.20
2013,08,19,10,17,17.20
2013,08,19,10,18,17.30
2013,08,19,10,19,17.30
2013,08,19,10,20,17.30
2013,08,19,10,21,17.30
2013,08,19,10,22,17.30
2013,08,19,10,23,17.30
2013,08,19,10,24,17.30
2013,08,19,10,25,17.30
2013,08,19,10,26,17.30
2013,08,19,10,27,17.40
2013,08,19,10,28,17.40
2013,08,19,10,29,17.40
2013,08,19,10,30,17.50
2013,08,19,10,31,17.60
2013,08,19,10,32,17.70
2013,08,19,10,33,17.80
2013,08,19,10,34,17.90
2013,08,19,10,35,17.90
2013,08,19,10,36,17.90
2013,08,19,10,37,17.90
2013,08,19,10,38,17.90
2013,08,19,10,39,17.90
2013,08,19,10,40,17.90
2013,08,19,10,41,18.10
2013,08,19,10,42,18.10
2013,08,19,10,43,18.20
2013,08,19,10,44,18.20
2013,08,19,10,45,18.30
2013,08,19,10,46,18.40
2013,08,19,10,47,18.40
2013,08,19,10,48,18.50
2013,08,19,10,49,18.50
2013,08,19,10,50,18.50
2013,08,19,10,51,18.50
2013,08,19,10,52,18.50
2013,08,19,10,53,18.60
2013,08,19,10,54,18.60
2013,08,19,10,55,18.60
2013,08,19,10,56,18.70
2013,08,19,10,57,18.70
2013,08,19,10,58,18.70
2013,08,19,10,59,18.60
2013,08,19,11,00,18.50
2013,08,19,11,01,18.40
2013,08,19,11,02,18.40
2013,08,19,11,03,18.40
2013,08,19,11,04,18.40
2013,08,19,11,05,18.40
2013,08,19,11,06,18.40
2013,08,19,11,07,18.50
2013,08,19,11,08,18.60
2013,08,19,11,09,18.70
2013,08,19,11,10,18.70
2013,08,19,11,11,18.70
2013,08,19,11,12,18.80
2013,08,19,11,13,18.80
2013,08,19,11,14,18.70
2013,08,19,11,15,18.70
2013,08,19,11,16,18.60
2013,08,19,11,17,18.60
2013,08,19,11,18,18.50
2013,08,19,11,19,18.50
2013,08,19,11,20,18.40
2013,08,19,11,21,18.40
2013,08,19,11,22,18.40
2013,08,19,11,23,18.40
2013,08,19,11,24,18.40
2013,08,19,11,25,18.40
2013,08,19,11,26,18.40
2013,08,19,11,27,18.30
2013,08,19,11,28,18.30
2013,08,19,11,29,18.30
2013,08,19,11,30,18.30
2013,08,19,11,31,18.30
2013,08,19,11,32,18.30
2013,08,19,11,33,18.30
2013,08,19,11,34,18.30
2013,08,19,11,35,18.40
2013,08,19,11,36,18.50
2013,08,19,11,37,18.50
2013,08,19,11,38,18.60
2013,08,19,11,39,18.70
2013,08,19,11,40,18.70
2013,08,19,11,41,18.70
2013,08,19,11,42,18.70
2013,08,19,11,43,18.70
2013,08,19,11,44,18.70
2013,08,19,11,45,18.60
2013,08,19,11,46,18.60
2013,08,19,11,47,18.60
2013,08,19,11,48,18.60
2013,08,19,11,49,18.70
2013,08,19,11,50,18.80
2013,08,19,11,51,18.90
2013,08,19,11,52,18.90
2013,08,19,11,53,19.10
2013,08,19,11,54,19.10
2013,08,19,11,55,19.30
2013,08,19,11,56,19.40
2013,08,19,11,57,19.50
2013,08,19,11,58,19.60
2013,08,19,11,59,19.70
2013,08,19,12,00,19.70
2013,08,19,12,01,19.80
2013,08,19,12,02,19.80
2013,08,19,12,03,19.80
2013,08,19,12,04,19.80
2013,08,19,12,05,19.90
2013,08,19,12,06,19.90
2013,08,19,12,07,19.90
2013,08,19,12,08,20.10
2013,08,19,12,09,20.10
2013,08,19,12,10,20.10
2013,08,19,12,11,20.20
2013,08,19,12,12,20.20
2013,08,19,12,13,20.20
2013,08,19,12,14,20.30
2013,08,19,12,15,20.40
2013,08,19,12,16,20.50
2013,08,19,12,17,20.50
2013,08,19,12,18,20.60
2013,08,19,12,19,20.60
2013,08,19,12,20,20.60
2013,08,19,12,21,20.60
2013,08,19,12,22,20.60
2013,08,19,12,23,20.50
2013,08,19,12,24,20.60
2013,08,19,12,25,20.60
2013,08,19,12,26,20.60
2013,08,19,12,27,20.50
2013,08,19,12,28,20.50
2013,08,19,12,29,20.60
2013,08,19,12,30,20.70
2013,08,19,12,31,20.80
2013,08,19,12,32,20.90
2013,08,19,12,33,21.00
2013,08,19,12,34,21.20
2013,08,19,12,35,21.30
2013,08,19,12,36,21.30
2013,08,19,12,37,21.60
2013,08,19,12,38,21.60
2013,08,19,12,39,21.60
2013,08,19,12,40,21.60
2013,08,19,12,41,21.70
2013,08,19,12,42,21.70
2013,08,19,12,43,21.60
2013,08,19,12,44,21.60
2013,08,19,12,45,21.60
2013,08,19,12,46,21.60
2013,08,19,12,47,21.40
2013,08,19,12,48,21.40
2013,08,19,12,49,21.40
2013,08,19,12,50,21.40
2013,08,19,12,51,21.30
2013,08,19,12,52,21.40
2013,08,19,12,53,21.30
2013,08,19,12,54,21.30
2013,08,19,12,55,21.10
2013,08,19,12,56,21.00
2013,08,19,12,57,21.00
2013,08,19,12,58,21.00
2013,08,19,12,59,20.90
2013,08,19,13,00,20.80
2013,08,19,13,01,20.80
2013,08,19,13,02,20.80
2013,08,19,13,03,20.80
2013,08,19,13,04,20.90
2013,08,19,13,05,21.00
2013,08,19,13,06,21.10
2013,08,19,13,07,21.20
2013,08,19,13,08,21.20
2013,08,19,13,09,21.20
2013,08,19,13,10,21.30
2013,08,19,13,11,21.30
2013,08,19,13,12,21.20
2013,08,19,13,13,21.20
2013,08,19,13,14,21.20
2013,08,19,13,15,21.20
2013,08,19,13,16,21.20
2013,08,19,13,17,21.20
2013,08,19,13,18,21.30
2013,08,19,13,19,21.30
2013,08,19,13,20,21.30
2013,08,19,13,21,21.30
2013,08,19,13,22,21.20
2013,08,19,13,23,21.20
2013,08,19,13,24,21.30
2013,08,19,13,25,21.30
2013,08,19,13,26,21.30
2013,08,19,13,27,21.30
2013,08,19,13,28,21.30
2013,08,19,13,29,21.30
2013,08,19,13,30,21.40
2013,08,19,13,31,21.40
2013,08,19,13,32,21.40
2013,08,19,13,33,21.40
2013,08,19,13,34,21.40
2013,08,19,13,35,21.60
2013,08,19,13,36,21.60
2013,08,19,13,37,21.70
2013,08,19,13,38,21.70
2013,08,19,13,39,21.70
2013,08,19,13,40,21.70
2013,08,19,13,41,21.70
2013,08,19,13,42,21.60
2013,08,19,13,43,21.60
2013,08,19,13,44,21.60
2013,08,19,13,45,21.30
2013,08,19,13,46,21.30
2013,08,19,13,47,21.40
2013,08,19,13,48,21.60
2013,08,19,13,49,21.60
2013,08,19,13,50,21.60
2013,08,19,13,51,21.60
2013,08,19,13,52,21.40
2013,08,19,13,53,21.40
2013,08,19,13,54,21.60
2013,08,19,13,55,21.60
2013,08,19,13,56,21.70
2013,08,19,13,57,21.80
2013,08,19,13,58,21.80
2013,08,19,13,59,21.80
2013,08,19,14,00,21.80
2013,08,19,14,01,21.90
2013,08,19,14,02,22.00
2013,08,19,14,03,22.00
2013,08,19,14,04,22.00
2013,08,19,14,05,22.00
2013,08,19,14,06,22.00
2013,08,19,14,07,21.80
2013,08,19,14,08,21.70
2013,08,19,14,09,21.60
2013,08,19,14,10,21.30
2013,08,19,14,11,21.30
2013,08,19,14,12,21.20
2013,08,19,14,13,21.30
2013,08,19,14,14,21.30
2013,08,19,14,15,21.30
2013,08,19,14,16,21.60
2013,08,19,14,17,21.60
2013,08,19,14,18,21.70
2013,08,19,14,19,21.60
2013,08,19,14,20,21.60
2013,08,19,14,21,21.60
2013,08,19,14,22,21.60
2013,08,19,14,23,21.60
2013,08,19,14,24,21.60
2013,08,19,14,25,21.60
2013,08,19,14,26,21.60
2013,08,19,14,27,21.40
2013,08,19,14,28,21.40
2013,08,19,14,29,21.40
2013,08,19,14,30,21.30
2013,08,19,14,31,21.30
2013,08,19,14,32,21.30
2013,08,19,14,33,21.30
2013,08,19,14,34,21.30
2013,08,19,14,35,21.30
2013,08,19,14,36,21.40
2013,08,19,14,37,21.40
2013,08,19,14,38,21.40
2013,08,19,14,39,21.40
2013,08,19,14,40,21.60
2013,08,19,14,41,21.60
2013,08,19,14,42,21.60
2013,08,19,14,43,21.60
2013,08,19,14,44,21.60
2013,08,19,14,45,21.60
2013,08,19,14,46,21.60
2013,08,19,14,47,21.60
2013,08,19,14,48,21.60
2013,08,19,14,49,21.60
2013,08,19,14,50,21.60
2013,08,19,14,51,21.60
2013,08,19,14,52,21.60
2013,08,19,14,53,21.60
2013,08,19,14,54,21.60
2013,08,19,14,55,21.60
2013,08,19,14,56,21.60
2013,08,19,14,57,21.60
2013,08,19,14,58,21.70
2013,08,19,14,59,21.80
2013,08,19,15,00,21.80
2013,08,19,15,01,21.90
2013,08,19,15,02,21.90
2013,08,19,15,03,21.70
2013,08,19,15,04,21.70
2013,08,19,15,05,21.70
2013,08,19,15,06,21.70
2013,08,19,15,07,21.70
2013,08,19,15,08,21.70
2013,08,19,15,09,21.80
2013,08,19,15,10,21.90
2013,08,19,15,11,21.90
2013,08,19,15,12,22.00
2013,08,19,15,13,22.00
2013,08,19,15,14,21.90
2013,08,19,15,15,21.80
2013,08,19,15,16,21.80
2013,08,19,15,17,21.90
2013,08,19,15,18,21.90
2013,08,19,15,19,21.80
2013,08,19,15,20,21.80
2013,08,19,15,21,21.80
2013,08,19,15,22,21.80
2013,08,19,15,23,21.90
2013,08,19,15,24,21.90
2013,08,19,15,25,21.90
2013,08,19,15,26,21.90
2013,08,19,15,27,21.90
2013,08,19,15,28,22.00
2013,08,19,15,29,22.00
2013,08,19,15,30,22.10
2013,08,19,15,31,22.10
2013,08,19,15,32,22.10
2013,08,19,15,33,22.10
2013,08,19,15,34,22.10
2013,08,19,15,35,22.10
2013,08,19,15,36,22.10
2013,08,19,15,37,22.10
2013,08,19,15,38,22.00
2013,08,19,15,39,21.90
2013,08,19,15,40,21.80
2013,08,19,15,41,21.70
2013,08,19,15,42,21.60
2013,08,19,15,43,21.60
2013,08,19,15,44,21.60
2013,08,19,15,45,21.30
2013,08,19,15,46,21.30
2013,08,19,15,47,21.30
2013,08,19,15,48,21.30
2013,08,19,15,49,21.30
2013,08,19,15,50,21.30
2013,08,19,15,51,21.30
2013,08,19,15,52,21.30
2013,08,19,15,53,21.40
2013,08,19,15,54,21.60
2013,08,19,15,55,21.60
2013,08,19,15,56,21.70
2013,08,19,15,57,21.70
2013,08,19,15,58,21.70
2013,08,19,15,59,21.80
2013,08,19,16,00,21.80
2013,08,19,16,01,21.80
2013,08,19,16,02,21.90
2013,08,19,16,03,22.00
2013,08,19,16,04,22.10
2013,08,19,16,05,22.20
2013,08,19,16,06,22.30
2013,08,19,16,07,22.40
2013,08,19,16,08,22.60
2013,08,19,16,09,22.70
2013,08,19,16,10,22.80
2013,08,19,16,11,22.80
2013,08,19,16,12,22.90
2013,08,19,16,13,22.90
2013,08,19,16,14,22.90
2013,08,19,16,15,22.90
2013,08,19,16,16,22.90
2013,08,19,16,17,22.80
2013,08,19,16,18,22.80
2013,08,19,16,19,22.70
2013,08,19,16,20,22.70
2013,08,19,16,21,22.80
2013,08,19,16,22,22.70
2013,08,19,16,23,22.70
2013,08,19,16,24,22.60
2013,08,19,16,25,22.60
2013,08,19,16,26,22.50
2013,08,19,16,27,22.50
2013,08,19,16,28,22.50
2013,08,19,16,29,22.50
2013,08,19,16,30,22.50
2013,08,19,16,31,22.60
2013,08,19,16,32,22.80
2013,08,19,16,33,22.90
2013,08,19,16,34,22.90
2013,08,19,16,35,22.80
2013,08,19,16,36,22.80
2013,08,19,16,37,22.70
2013,08,19,16,38,22.70
2013,08,19,16,39,22.70
2013,08,19,16,40,22.50
2013,08,19,16,41,22.40
2013,08,19,16,42,22.30
2013,08,19,16,43,22.30
2013,08,19,16,44,22.20
2013,08,19,16,45,22.20
2013,08,19,16,46,22.20
2013,08,19,16,47,22.30
2013,08,19,16,48,22.40
2013,08,19,16,49,22.50
2013,08,19,16,50,22.50
2013,08,19,16,51,22.50
2013,08,19,16,52,22.50
2013,08,19,16,53,22.40
2013,08,19,16,54,22.30
2013,08,19,16,55,22.30
2013,08,19,16,56,22.30
2013,08,19,16,57,22.30
2013,08,19,16,58,22.30
2013,08,19,16,59,22.30
2013,08,19,17,00,22.30
2013,08,19,17,01,22.30
2013,08,19,17,02,22.10
2013,08,19,17,03,22.00
2013,08,19,17,04,21.90
2013,08,19,17,05,21.80
2013,08,19,17,06,21.80
2013,08,19,17,07,21.80
2013,08,19,17,08,21.80
2013,08,19,17,09,21.80
2013,08,19,17,10,21.80
2013,08,19,17,11,21.80
2013,08,19,17,12,21.80
2013,08,19,17,13,21.70
2013,08,19,17,14,21.70
2013,08,19,17,15,21.70
2013,08,19,17,16,21.70
2013,08,19,17,17,21.70
2013,08,19,17,18,21.70
2013,08,19,17,19,21.70
2013,08,19,17,20,21.70
2013,08,19,17,21,21.70
2013,08,19,17,22,21.60
2013,08,19,17,23,21.60
2013,08,19,17,24,21.60
2013,08,19,17,25,21.60
2013,08,19,17,26,21.40
2013,08,19,17,27,21.30
2013,08,19,17,28,21.30
2013,08,19,17,29,21.20
2013,08,19,17,30,21.10
2013,08,19,17,31,21.00
2013,08,19,17,32,20.90
2013,08,19,17,33,20.90
2013,08,19,17,34,20.80
2013,08,19,17,35,20.80
2013,08,19,17,36,20.80
2013,08,19,17,37,20.80
2013,08,19,17,38,20.80
2013,08,19,17,39,20.90
2013,08,19,17,40,20.90
2013,08,19,17,41,20.90
2013,08,19,17,42,21.00
2013,08,19,17,43,21.00
2013,08,19,17,44,21.00
2013,08,19,17,45,21.00
2013,08,19,17,46,20.90
2013,08,19,17,47,20.80
2013,08,19,17,48,20.70
2013,08,19,17,49,20.60
2013,08,19,17,50,20.50
2013,08,19,17,51,20.40
2013,08,19,17,52,20.40
2013,08,19,17,53,20.30
2013,08,19,17,54,20.20
2013,08,19,17,55,20.20
2013,08,19,17,56,20.20
2013,08,19,17,57,20.10
2013,08,19,17,58,20.10
2013,08,19,17,59,19.90
2013,08,19,18,00,19.90
2013,08,19,18,01,19.90
2013,08,19,18,02,19.90
2013,08,19,18,03,19.90
2013,08,19,18,04,19.90
2013,08,19,18,05,19.90
2013,08,19,18,06,19.90
2013,08,19,18,07,19.90
2013,08,19,18,08,19.90
2013,08,19,18,09,19.80
2013,08,19,18,10,19.80
2013,08,19,18,11,19.90
2013,08,19,18,12,19.90
2013,08,19,18,13,19.90
2013,08,19,18,14,19.80
2013,08,19,18,15,19.80
2013,08,19,18,16,19.80
2013,08,19,18,17,19.80
2013,08,19,18,18,19.80
2013,08,19,18,19,19.80
2013,08,19,18,20,19.80
2013,08,19,18,21,19.80
2013,08,19,18,22,19.80
2013,08,19,18,23,19.80
2013,08,19,18,24,19.80
2013,08,19,18,25,19.80
2013,08,19,18,26,19.80
2013,08,19,18,27,19.80
2013,08,19,18,28,19.80
2013,08,19,18,29,19.80
2013,08,19,18,30,19.80
2013,08,19,18,31,19.80
2013,08,19,18,32,19.80
2013,08,19,18,33,19.90
2013,08,19,18,34,19.90
2013,08,19,18,35,19.90
2013,08,19,18,36,19.90
2013,08,19,18,37,19.90
2013,08,19,18,38,19.90
2013,08,19,18,39,19.90
2013,08,19,18,40,19.80
2013,08,19,18,41,19.80
2013,08,19,18,42,19.80
2013,08,19,18,43,19.80
2013,08,19,18,44,19.80
2013,08,19,18,45,19.90
2013,08,19,18,46,19.90
2013,08,19,18,47,19.90
2013,08,19,18,48,19.90
2013,08,19,18,49,20.10
2013,08,19,18,50,20.10
2013,08,19,18,51,20.10
2013,08,19,18,52,20.10
2013,08,19,18,53,20.10
2013,08,19,18,54,20.10
2013,08,19,18,55,20.10
2013,08,19,18,56,20.20
2013,08,19,18,57,20.20
2013,08,19,18,58,20.10
2013,08,19,18,59,20.10
2013,08,19,19,00,20.10
2013,08,19,19,01,19.90
2013,08,19,19,02,19.90
2013,08,19,19,03,19.90
2013,08,19,19,04,19.90
2013,08,19,19,05,19.90
2013,08,19,19,06,19.90
2013,08,19,19,07,19.90
2013,08,19,19,08,19.90
2013,08,19,19,09,19.90
2013,08,19,19,10,19.90
2013,08,19,19,11,19.90
2013,08,19,19,12,19.90
2013,08,19,19,13,19.90
2013,08,19,19,14,19.90
2013,08,19,19,15,19.90
2013,08,19,19,16,19.80
2013,08,19,19,17,19.80
2013,08,19,19,18,19.80
2013,08,19,19,19,19.80
2013,08,19,19,20,19.80
2013,08,19,19,21,19.80
2013,08,19,19,22,19.80
2013,08,19,19,23,19.80
2013,08,19,19,24,19.70
2013,08,19,19,25,19.70
2013,08,19,19,26,19.70
2013,08,19,19,27,19.60
2013,08,19,19,28,19.60
2013,08,19,19,29,19.50
2013,08,19,19,30,19.50
2013,08,19,19,31,19.50
2013,08,19,19,32,19.40
2013,08,19,19,33,19.40
2013,08,19,19,34,19.40
2013,08,19,19,35,19.40
2013,08,19,19,36,19.40
2013,08,19,19,37,19.40
2013,08,19,19,38,19.40
2013,08,19,19,39,19.40
2013,08,19,19,40,19.40
2013,08,19,19,41,19.40
2013,08,19,19,42,19.30
2013,08,19,19,43,19.30
2013,08,19,19,44,19.30
2013,08,19,19,45,19.30
2013,08,19,19,46,19.20
2013,08,19,19,47,19.20
2013,08,19,19,48,19.10
2013,08,19,19,49,19.10
2013,08,19,19,50,19.10
2013,08,19,19,51,19.10
2013,08,19,19,52,18.90
2013,08,19,19,53,18.90
2013,08,19,19,54,18.90
2013,08,19,19,55,18.90
2013,08,19,19,56,18.90
2013,08,19,19,57,18.80
2013,08,19,19,58,18.80
2013,08,19,19,59,18.70
2013,08,19,20,00,18.70
2013,08,19,20,01,18.60
2013,08,19,20,02,18.60
2013,08,19,20,03,18.50
2013,08,19,20,04,18.50
2013,08,19,20,05,18.50
2013,08,19,20,06,18.40
2013,08,19,20,07,18.40
2013,08,19,20,08,18.40
2013,08,19,20,09,18.40
2013,08,19,20,10,18.30
2013,08,19,20,11,18.30
2013,08,19,20,12,18.20
2013,08,19,20,13,18.20
2013,08,19,20,14,18.20
2013,08,19,20,15,18.20
2013,08,19,20,16,18.20
2013,08,19,20,17,18.20
2013,08,19,20,18,18.20
2013,08,19,20,19,18.20
2013,08,19,20,20,18.10
2013,08,19,20,21,18.10
2013,08,19,20,22,18.10
2013,08,19,20,23,18.10
2013,08,19,20,24,18.10
2013,08,19,20,25,18.10
2013,08,19,20,26,17.90
2013,08,19,20,27,17.90
2013,08,19,20,28,17.90
2013,08,19,20,29,17.90
2013,08,19,20,30,17.90
2013,08,19,20,31,17.90
2013,08,19,20,32,17.90
2013,08,19,20,33,17.90
2013,08,19,20,34,17.90
2013,08,19,20,35,17.90
2013,08,19,20,36,17.90
2013,08,19,20,37,17.80
2013,08,19,20,38,17.80
2013,08,19,20,39,17.80
2013,08,19,20,40,17.80
2013,08,19,20,41,17.80
2013,08,19,20,42,17.80
2013,08,19,20,43,17.80
2013,08,19,20,44,17.80
2013,08,19,20,45,17.80
2013,08,19,20,46,17.80
2013,08,19,20,47,17.80
2013,08,19,20,48,17.80
2013,08,19,20,49,17.80
2013,08,19,20,50,17.70
2013,08,19,20,51,17.70
2013,08,19,20,52,17.70
2013,08,19,20,53,17.70
2013,08,19,20,54,17.70
2013,08,19,20,55,17.70
2013,08,19,20,56,17.60
2013,08,19,20,57,17.60
2013,08,19,20,58,17.60
2013,08,19,20,59,17.60
2013,08,19,21,00,17.60
2013,08,19,21,01,17.50
2013,08,19,21,02,17.50
2013,08,19,21,03,17.50
2013,08,19,21,04,17.50
2013,08,19,21,05,17.50
2013,08,19,21,06,17.50
2013,08,19,21,07,17.50
2013,08,19,21,08,17.50
2013,08,19,21,09,17.50
2013,08,19,21,10,17.40
2013,08,19,21,11,17.40
2013,08,19,21,12,17.40
2013,08,19,21,13,17.40
2013,08,19,21,14,17.40
2013,08,19,21,15,17.30
2013,08,19,21,16,17.30
2013,08,19,21,17,17.30
2013,08,19,21,18,17.30
2013,08,19,21,19,17.30
2013,08,19,21,20,17.30
2013,08,19,21,21,17.30
2013,08,19,21,22,17.30
2013,08,19,21,23,17.30
2013,08,19,21,24,17.30
2013,08,19,21,25,17.30
2013,08,19,21,26,17.30
2013,08,19,21,27,17.30
2013,08,19,21,28,17.30
2013,08,19,21,29,17.30
2013,08,19,21,30,17.30
2013,08,19,21,31,17.30
2013,08,19,21,32,17.30